Location: Pinhead Observatory
(34.4473°N, 118.1985°W)
Time: 15:57:11
(UTC-07:00)

Daily predictions for brighter satellites

Satellite Brightness Start Highest point End
(mag) Time Altitude Azimuth Time Altitude Azimuth Time Altitude Azimuth
Cosmos 2034 Rocket 4.1 19:45:37 10° S 19:51:48 88° E 19:57:59 10° N
CENTAUR R/B 3.7 19:50:57 10° SW 19:56:39 47° NW 20:03:06 10° NNE
Gblst 52 Del rocket 4.4 19:51:42 10° NW 19:57:34 60° NE 20:02:59 10° ESE
Resurs 1-3 4.2 19:53:56 10° SE 19:57:58 37° ENE 20:02:01 10° N
Cosmos 1151 Rocket 4.2 19:55:14 10° SSW 19:59:25 48° W 20:03:36 10° N
Cosmos 1869 Rocket 4.2 19:56:39 10° N 20:00:50 37° E 20:04:59 10° SSE
Abrixas rocket 4.3 19:58:26 10° W 20:01:21 29° NNW 20:04:17 10° NNE
Cosmos 2360 4.2 19:58:34 10° SSW 20:04:15 77° ESE 20:10:00 10° NNE
Atlas Centaur 2 3.5 20:00:40 10° SW 20:06:35 34° SSE 20:13:34 10° E
SL-8 R/B 3.7 20:02:11 10° NW 20:07:02 87° SW 20:11:50 10° SE
Cosmos 1455 2.1 20:06:15 10° S 20:10:02 67° E 20:13:47 10° NNE
BREEZE-M DEB (TANK) 3.6 20:07:34 10° WNW 20:10:02 42° SW 20:15:04 10° SSE
Helios 1A 4.0 20:13:13 10° SE 20:16:52 29° ENE 20:20:33 10° N
Molniya-1 3.8 20:17:45 10° SW 20:19:15 38° NW 20:21:01 10° NNE
Cosmos 1869 3.4 20:19:48 10° SSE 20:23:36 49° E 20:27:25 10° NNE
DELTA 2 R/B (1) 3.6 20:20:13 10° WNW 20:25:52 85° SSW 20:30:21 16° ESE
CZ-4B DEB 4.1 20:26:45 18° E 20:27:41 21° ENE 20:30:03 10° NNE
GRACE-1 3.7 20:25:37 10° N 20:28:21 78° E 20:31:04 10° S
GRACE-2 3.7 20:26:01 10° N 20:28:45 78° E 20:31:28 10° S
Resurs 01 Rocket 1.8 20:24:43 10° S 20:29:09 78° WSW 20:33:37 10° NNW
Spot 2 Rocket 3.5 20:24:39 10° SSE 20:29:45 88° WSW 20:34:52 10° NNW
OAO 3 Rocket 3.2 20:25:12 10° W 20:30:06 90° WNW 20:34:28 13° E
BREEZE-M DEB (TANK) 3.7 20:27:10 10° WSW 20:31:02 87° NNW 20:38:29 10° ENE
Cosmos 1892 3.3 20:27:50 10° NNW 20:31:34 59° W 20:35:18 10° S
Cosmos 1900 4.4 20:27:05 10° NNW 20:32:13 88° ENE 20:36:57 12° SSE
Cosmos 1400 Rocket 3.8 20:31:15 10° NNW 20:35:01 47° W 20:38:48 10° S
Meteor 1-29 3.2 20:33:46 10° NNE 20:37:06 44° E 20:40:24 10° S
H-2A R/B 3.9 20:34:12 10° S 20:37:57 44° W 20:41:40 10° NNW
CZ-3B DEB 2.4 20:42:53 10° WNW 20:46:00 24° WSW 20:47:29 14° SSW
Cosmos 2263 Rocket 3.3 20:43:26 10° N 20:48:03 26° ENE 20:50:08 21° E
Cosmos 220 Rocket 4.4 20:43:50 10° N 20:48:09 47° ENE 20:50:11 27° SE
Cosmos 1933 4.0 20:47:17 27° SE 20:48:30 33° E 20:52:09 10° NNE
Cosmos 1315 Rocket 3.1 20:44:46 10° NNW 20:48:49 68° W 20:52:47 10° S
Cosmos 2322 Rocket 2.1 20:44:02 10° SSW 20:49:37 82° ESE 20:55:15 10° NNE
Envisat 3.1 20:45:59 18° SSE 20:49:42 60° ENE 20:54:42 10° N
OTV 4 2.1 20:48:20 10° W 20:50:38 22° SSW 20:51:16 20° S
Cosmos 2142 Rocket 4.4 20:45:18 10° S 20:51:25 89° W 20:57:35 10° N
Cosmos 2360 Rocket 2.7 20:57:15 22° SSE 21:00:04 35° ESE 21:05:08 10° NE
Cosmos 1825 2.1 20:57:09 10° N 21:00:56 67° E 21:02:11 39° SSE
Cosmos 1980 Rocket 4.4 20:56:18 10° WSW 21:01:03 27° WNW 21:05:52 10° N
GENESIS II 4.2 20:58:04 10° SSW 21:02:06 87° NW 21:06:11 10° NNE
USA 186 3.5 21:05:34 15° SW 21:07:09 25° W 21:09:32 10° NW
Cosmos 2322 4.2 21:07:11 33° ESE 21:08:06 35° ESE 21:13:14 10° NE
SEDSat Delta rocket 3.7 21:03:01 10° WSW 21:08:17 58° S 21:10:43 34° ESE
USA 234 3.3 21:10:15 30° ESE 21:13:36 67° NE 21:20:05 10° NW
Cosmos 2026 Rocket 4.0 21:08:00 10° N 21:14:14 85° W 21:18:58 18° S
Cosmos 1862 3.2 21:11:29 10° N 21:15:30 69° E 21:16:03 59° SE
SL-16 R/B 2.8 21:11:51 10° SW 21:17:25 58° WNW 21:23:02 10° NNE
Helios 1B rocket 3.9 21:14:38 10° N 21:18:26 38° WNW 21:22:13 10° SW
ERBS 2.3 21:16:03 10° NW 21:19:24 84° NNW 21:19:24 84° NNW
Lacrosse 4 Rocket 1.4 21:16:29 10° NNW 21:20:50 76° ENE 21:21:30 61° SE
Cosmos 1939 Rocket 3.0 21:20:15 40° S 21:21:37 70° WSW 21:25:38 10° NNW
ERS-1 Rocket 3.0 21:22:09 48° ESE 21:23:11 59° ENE 21:28:07 10° N
Cosmos 1733 Rocket 3.1 21:22:55 10° N 21:27:23 81° W 21:28:30 50° S
ATLAS 5 CENTAUR R/B 3.3 21:22:24 10° NNW 21:27:52 34° NE 21:29:19 31° ENE
Cosmos 1862 Rocket 4.0 21:27:08 21° SSW 21:30:02 62° W 21:34:29 10° N
STPSAT 2 (USA 217) 4.5 21:27:37 10° NNW 21:32:13 73° ENE 21:32:26 71° E
ARGOS 3.8 21:34:29 38° ENE 21:34:29 38° ENE 21:39:25 10° N
Cosmos 1408 4.1 21:32:04 10° NNW 21:35:25 34° W 21:36:27 28° SW
SeaSat 1 3.4 21:36:49 32° ENE 21:36:49 32° ENE 21:41:07 10° N
Cosmos 1655 Rocket 4.4 21:35:27 10° NNW 21:41:46 63° W 21:45:34 25° SSW
Meteor 1-26 Rocket 4.1 21:40:50 54° SSE 21:42:08 77° E 21:47:53 10° NNE
Terra 4.1 21:48:57 13° NE 21:48:57 13° NE 21:49:57 10° NNE
Cosmos 1703 Rocket 4.3 21:51:17 46° NNE 21:51:17 46° NNE 21:54:28 10° N
Cosmos 1844 Rocket 4.4 21:47:23 10° NNE 21:50:44 19° NE 21:50:44 19° NE
Atlas Centaur 2 2.9 21:48:27 10° WSW 21:55:44 61° S 21:56:51 56° SE
USA 229 DEB 3.5 21:49:41 10° SSW 21:56:29 82° ESE 22:03:25 10° NNE
USA 229 3.5 21:49:46 10° SSW 21:56:34 82° ESE 22:03:30 10° NNE
Cosmos 2266 Rocket 3.8 21:56:03 10° N 22:02:21 79° E 22:02:49 75° SE
BREEZE-M DEB (TANK) 4.1 21:47:10 10° NW 22:04:51 85° SW 22:05:43 69° SSE
Cosmos 2219 Rocket 4.5 22:10:17 12° NE 22:10:17 12° NE 22:10:39 10° NE
Nimbus 7 Rocket 4.3 22:02:05 10° NNE 22:08:00 83° E 22:08:00 83° E
MetOp-A 4.2 22:09:59 69° W 22:09:59 69° W 22:15:19 10° NNW
H-2A R/B 3.0 22:14:05 37° NNE 22:14:05 37° NNE 22:17:18 10° N
MOS 1-B Rocket 3.8 22:13:24 81° NE 22:13:24 81° NE 22:18:59 10° N
OAO 3 Rocket 4.1 22:08:48 10° W 22:12:17 46° W 22:12:17 46° W
Cosmos 1867 4.0 22:08:57 10° NNW 22:13:26 53° NNE 22:13:26 53° NNE
Meteor 1-14 Rocket 4.4 22:15:44 10° NNW 22:20:56 72° NW 22:20:56 72° NW
SPOT 5 3.6 22:22:39 50° NW 22:22:39 50° NW 22:26:14 10° NNW
Cosmos 2237 4.5 22:23:56 64° NNW 22:23:56 64° NNW 22:28:57 10° NNE
Cosmos 968 Rocket 4.2 22:22:51 10° NNW 22:26:54 51° NW 22:26:54 51° NW
Milstar 3 3.7 22:21:58 10° W 22:26:44 33° SW 22:26:44 33° SW
Cosmos 2263 Rocket 3.3 22:26:57 10° NW 22:31:52 36° W 22:31:52 36° W
COSMOS 2428 3.6 22:34:03 41° NNE 22:34:03 41° NNE 22:37:43 10° NNE
H-2A R/B 4.4 22:38:12 19° N 22:38:12 19° N 22:39:28 10° N
Cosmos 2360 Rocket 4.0 22:39:16 10° WSW 22:44:02 28° WNW 22:48:51 10° N
Cosmos 2333 Rocket 4.1 23:16:06 23° NNE 23:16:06 23° NNE 23:18:10 10° NNE
ATLAS 5 CENTAUR R/B 3.7 23:06:53 10° NW 23:10:52 34° WNW 23:10:52 34° WNW
Cosmos 2237 Rocket 4.4 23:23:19 18° NNE 23:23:19 18° NNE 23:24:43 10° NNE
Terra 4.3 23:27:49 19° NNW 23:27:49 19° NNW 23:29:11 10° NNW
Cosmos 2278 Rocket 4.0 23:21:18 10° N 23:23:48 26° N 23:23:48 26° N
Cosmos 2219 Rocket 4.3 23:51:56 23° NNW 23:51:56 23° NNW 23:54:34 10° N
